| time (UTC) | temp F | wind direction | speed MPH | gust MPH | rain 1hr in | rain 24hr in | rain mn in | humidity % | barometer mb |
| 20260509181503 | 76 | 0.0 | 0.0 | 0.00 | 0.00 | 0.00 | 48 | 1018.8 | |
| 20260509180059 | 75 | 0.0 | 0.0 | 0.00 | 0.00 | 0.00 | 50 | 1018.9 | |
| 20260509174555 | 75 | 0.0 | 0.0 | 0.00 | 0.00 | 0.00 | 50 | 1019.0 | |
| 20260509173116 | 73 | 0.0 | 0.0 | 0.00 | 0.00 | 0.00 | 54 | 1018.9 | |
| 20260509171547 | 72 | 0.0 | 0.0 | 0.00 | 0.00 | 0.00 | 56 | 1019.0 | |
| 20260509170052 | 71 | 0.0 | 0.0 | 0.00 | 0.00 | 0.00 | 58 | 1018.9 | |
| 20260509164537 | 69 | 0.0 | 0.0 | 0.00 | 0.00 | 0.00 | 60 | 1018.9 | |
| 20260509163032 | 68 | 0.0 | 0.0 | 0.00 | 0.00 | 0.00 | 65 | 1019.0 | |
| 20260509161528 | 65 | 0.0 | 0.0 | 0.00 | 0.00 | 0.00 | 68 | 1019.0 | |
| 20260509160024 | 65 | 0.0 | 0.0 | 0.00 | 0.00 | 0.00 | 70 | 1019.0 | |
| 20260509154519 | 65 | 0.0 | 0.0 | 0.00 | 0.00 | 0.00 | 71 | 1018.9 | |
| 20260509153027 | 64 | 0.0 | 0.0 | 0.00 | 0.00 | 0.00 | 72 | 1018.9 | |
| 20260509151510 | 62 | 0.0 | 0.0 | 0.00 | 0.00 | 0.00 | 73 | 1018.8 | |
| 20260509150009 | 61 | 0.0 | 0.0 | 0.00 | 0.00 | 0.00 | 76 | 1019.0 | |
| 20260509144502 | 59 | 0.0 | 0.0 | 0.00 | 0.00 | 0.00 | 79 | 1018.9 | |
| 20260509143106 | 56 | 0.0 | 0.0 | 0.00 | 0.00 | 0.00 | 81 | 1019.0 | |
| 20260509141554 | 54 | 0.0 | 0.0 | 0.00 | 0.00 | 0.00 | 84 | 1019.1 | |
| 20260509140049 | 51 | 0.0 | 0.0 | 0.00 | 0.00 | 0.00 | 87 | 1018.9 | |
| 20260509134547 | 50 | 0.0 | 0.0 | 0.00 | 0.00 | 0.00 | 87 | 1018.7 | |
| 20260509133040 | 50 | 0.0 | 0.0 | 0.00 | 0.00 | 0.00 | 87 | 1018.6 | |
| 20260509131543 | 50 | 0.0 | 0.0 | 0.00 | 0.00 | 0.00 | 89 | 1018.7 | |
| 20260509130054 | 49 | 0.0 | 0.0 | 0.00 | 0.00 | 0.00 | 87 | 1018.7 | |
| 20260509124533 | 50 | 0.0 | 0.0 | 0.00 | 0.00 | 0.00 | 85 | 1018.6 | |
| 20260509123030 | 50 | 0.0 | 0.0 | 0.00 | 0.00 | 0.00 | 86 | 1018.4 | |
| 20260509121518 | 51 | 0.0 | 0.0 | 0.00 | 0.00 | 0.00 | 85 | 1018.4 | |
| 20260509120016 | 51 | 0.0 | 0.0 | 0.00 | 0.00 | 0.00 | 83 | 1018.4 | |
| 20260509114509 | 52 | 0.0 | 0.0 | 0.00 | 0.00 | 0.00 | 81 | 1018.4 | |
| 20260509113006 | 52 | 0.0 | 0.0 | 0.00 | 0.00 | 0.00 | 81 | 1018.4 | |
| 20260509111501 | 52 | 0.0 | 0.0 | 0.00 | 0.00 | 0.00 | 81 | 1018.4 | |
| 20260509110101 | 53 | 0.0 | 0.0 | 0.00 | 0.00 | 0.00 | 81 | 1018.4 | |
| 20260509104553 | 53 | 0.0 | 0.0 | 0.00 | 0.00 | 0.00 | 81 | 1018.4 | |
| 20260509103050 | 53 | 0.0 | 0.0 | 0.00 | 0.00 | 0.00 | 80 | 1018.4 | |
| 20260509101556 | 54 | 0.0 | 0.0 | 0.00 | 0.00 | 0.00 | 82 | 1018.6 | |
| 20260509100039 | 54 | 0.0 | 0.0 | 0.00 | 0.00 | 0.00 | 81 | 1018.7 | |
| 20260509094535 | 54 | 0.0 | 0.0 | 0.00 | 0.00 | 0.00 | 81 | 1018.9 | |
| 20260509093031 | 55 | 0.0 | 0.0 | 0.00 | 0.00 | 0.00 | 82 | 1018.8 | |
| 20260509091530 | 55 | 0.0 | 0.0 | 0.00 | 0.00 | 0.00 | 80 | 1018.8 | |
| 20260509090024 | 55 | 0.0 | 0.0 | 0.00 | 0.00 | 0.00 | 81 | 1018.9 | |
| 20260509084521 | 55 | 0.0 | 0.0 | 0.00 | 0.00 | 0.00 | 84 | 1019.1 | |
| 20260509083016 | 55 | 0.0 | 0.0 | 0.00 | 0.00 | 0.00 | 85 | 1019.3 | |
| 20260509081508 | 56 | 0.0 | 0.0 | 0.00 | 0.00 | 0.00 | 85 | 1019.4 | |
| 20260509080005 | 56 | 0.0 | 0.0 | 0.00 | 0.00 | 0.00 | 85 | 1019.4 | |
| 20260509074501 | 56 | 0.0 | 0.0 | 0.00 | 0.00 | 0.00 | 86 | 1019.6 | |
| 20260509073056 | 56 | 0.0 | 0.0 | 0.00 | 0.00 | 0.00 | 85 | 1019.7 | |
| 20260509071552 | 57 | 0.0 | 0.0 | 0.00 | 0.00 | 0.00 | 85 | 1019.8 | |
| 20260509070052 | 57 | 0.0 | 0.0 | 0.00 | 0.00 | 0.00 | 85 | 1019.8 | |
| 20260509064554 | 57 | 0.0 | 0.0 | 0.00 | 0.00 | 0.00 | 84 | 1019.8 | |
| 20260509063039 | 58 | 0.0 | 0.0 | 0.00 | 0.00 | 0.00 | 84 | 1019.9 | |
| 20260509061541 | 58 | 0.0 | 0.0 | 0.00 | 0.00 | 0.00 | 84 | 1020.0 | |
| 20260509060030 | 58 | 0.0 | 0.0 | 0.00 | 0.00 | 0.00 | 84 | 1020.1 | |
| 20260509054525 | 59 | 0.0 | 0.0 | 0.00 | 0.00 | 0.00 | 84 | 1020.1 | |
| 20260509053021 | 59 | 0.0 | 0.0 | 0.00 | 0.00 | 0.00 | 83 | 1020.2 | |
| 20260509051516 | 60 | 0.0 | 0.0 | 0.00 | 0.00 | 0.00 | 83 | 1020.1 | |
| 20260509050021 | 60 | 0.0 | 0.0 | 0.00 | 0.00 | 0.00 | 82 | 1020.2 | |
| 20260509044508 | 61 | 0.0 | 0.0 | 0.00 | 0.00 | 0.00 | 81 | 1020.1 | |
| 20260509043005 | 61 | 0.0 | 0.0 | 0.00 | 0.00 | 0.00 | 80 | 1020.1 | |
| 20260509041600 | 62 | 0.0 | 0.0 | 0.00 | 0.00 | 0.00 | 79 | 1020.0 | |
| 20260509040055 | 62 | 0.0 | 0.0 | 0.00 | 0.00 | 0.00 | 79 | 1019.9 | |
| 20260509034551 | 63 | 0.0 | 0.0 | 0.00 | 0.00 | 0.00 | 77 | 1019.8 | |
| 20260509033048 | 64 | 0.0 | 0.0 | 0.00 | 0.00 | 0.00 | 76 | 1019.6 | |
| 20260509031553 | 65 | 0.0 | 0.0 | 0.00 | 0.00 | 0.00 | 74 | 1019.6 | |
| 20260509030038 | 66 | 0.0 | 0.0 | 0.00 | 0.00 | 0.00 | 72 | 1019.6 | |
| 20260509024532 | 67 | 0.0 | 0.0 | 0.00 | 0.00 | 0.00 | 70 | 1019.4 | |
| 20260509023029 | 68 | 0.0 | 0.0 | 0.00 | 0.00 | 0.00 | 68 | 1019.3 | |
| 20260509021524 | 69 | 0.0 | 0.0 | 0.00 | 0.00 | 0.00 | 66 | 1019.1 | |
| 20260509020019 | 70 | 0.0 | 0.0 | 0.00 | 0.00 | 0.00 | 64 | 1019.0 | |
| 20260509014532 | 71 | 0.0 | 0.0 | 0.00 | 0.00 | 0.00 | 62 | 1018.9 | |
| 20260509013011 | 72 | 0.0 | 0.0 | 0.00 | 0.00 | 0.00 | 61 | 1019.0 | |
| 20260509011508 | 73 | 0.0 | 0.0 | 0.00 | 0.00 | 0.00 | 59 | 1019.0 | |
| 20260509010003 | 74 | 0.0 | 0.0 | 0.00 | 0.00 | 0.00 | 58 | 1019.0 | |
| 20260509004609 | 74 | 0.0 | 0.0 | 0.00 | 0.00 | 0.00 | 57 | 1018.9 | |
| 20260509003101 | 74 | 0.0 | 0.0 | 0.00 | 0.00 | 0.00 | 57 | 1018.9 | |
| 20260509001549 | 75 | 0.0 | 0.0 | 0.00 | 0.00 | 0.00 | 56 | 1018.9 | |
| 20260509000046 | 76 | 0.0 | 0.0 | 0.00 | 0.00 | 0.00 | 55 | 1019.0 | |
| 20260508234548 | 77 | 0.0 | 0.0 | 0.00 | 0.00 | 0.00 | 54 | 1019.0 | |
| 20260508233036 | 78 | 0.0 | 0.0 | 0.00 | 0.00 | 0.00 | 53 | 1019.0 | |
| 20260508231531 | 78 | 0.0 | 0.0 | 0.00 | 0.00 | 0.00 | 51 | 1019.1 | |
| 20260508230027 | 79 | 0.0 | 0.0 | 0.00 | 0.00 | 0.00 | 50 | 1019.2 | |
| 20260508224524 | 81 | 0.0 | 0.0 | 0.00 | 0.00 | 0.00 | 48 | 1019.1 | |
| 20260508223019 | 82 | 0.0 | 0.0 | 0.00 | 0.00 | 0.00 | 46 | 1019.2 | |
| 20260508221515 | 83 | 0.0 | 0.0 | 0.00 | 0.00 | 0.00 | 45 | 1019.4 | |
| 20260508220032 | 83 | 0.0 | 0.0 | 0.00 | 0.00 | 0.00 | 45 | 1019.6 | |
| 20260508214506 | 83 | 0.0 | 0.0 | 0.00 | 0.00 | 0.00 | 39 | 1019.6 | |
| 20260508213003 | 84 | 0.0 | 0.0 | 0.00 | 0.00 | 0.00 | 40 | 1019.8 | |
| 20260508211557 | 83 | 0.0 | 0.0 | 0.00 | 0.00 | 0.00 | 40 | 1019.9 | |
| 20260508210056 | 82 | 0.0 | 0.0 | 0.00 | 0.00 | 0.00 | 42 | 1020.0 | |
| 20260508204600 | 81 | 0.0 | 0.0 | 0.00 | 0.00 | 0.00 | 42 | 1020.1 | |
| 20260508203047 | 80 | 0.0 | 0.0 | 0.00 | 0.00 | 0.00 | 44 | 1020.3 | |
| 20260508201540 | 80 | 0.0 | 0.0 | 0.00 | 0.00 | 0.00 | 48 | 1020.3 | |
| 20260508200037 | 79 | 0.0 | 0.0 | 0.00 | 0.00 | 0.00 | 49 | 1020.3 | |
| 20260508194534 | 78 | 0.0 | 0.0 | 0.00 | 0.00 | 0.00 | 53 | 1020.5 | |
| 20260508193028 | 77 | 0.0 | 0.0 | 0.00 | 0.00 | 0.00 | 53 | 1020.7 | |
| 20260508191524 | 76 | 0.0 | 0.0 | 0.00 | 0.00 | 0.00 | 56 | 1020.8 | |
| 20260508190017 | 74 | 0.0 | 0.0 | 0.00 | 0.00 | 0.00 | 61 | 1020.9 | |
| 20260508184519 | 74 | 0.0 | 0.0 | 0.00 | 0.00 | 0.00 | 60 | 1021.1 | |
| 20260508183011 | 73 | 0.0 | 0.0 | 0.00 | 0.00 | 0.00 | 60 | 1021.3 |